Regional Weather Roundup
Issued by NWS

Home | Current Version | Previous Version | Graphics & Text | Print | Product List | Glossary On
Versions: 1 2 3 4 5 6 7 8 9 10 11 12 13 14 15 16 17 18 19 20 21 22 23 24 25 26 27 28 29 30 31 32 33 34 35 36 37 38 39 40 41 42 43 44 45 46 47 48 49 50
000
ASUS43 KLMK 092310
RWRKY
KENTUCKY REGIONAL WEATHER ROUNDUP
NATIONAL WEATHER SERVICE LOUISVILLE KY
700 PM EDT WED JUL 09 2014

NOTE "FAIR" INDICATES FEW OR NO CLOUDS BELOW 12,000 FEET
WITH NO SIGNIFICANT WEATHER AND/OR OBSTRUCTIONS TO VISIBILITY.

KYZ001>023-026-027-061>063-070>075-100000-
WESTERN AND SOUTH CENTRAL KENTUCKY

CITY           SKY/WX    TMP DP  RH WIND       PRES   REMARKS
PADUCAH        SUNNY     87  61  41 NW5       29.96F
HENDERSON      SUNNY     84  63  48 W7        29.95F
OWENSBORO      MOSUNNY   84  61  45 NW8       29.96F
HOPKINSVILLE   SUNNY     84  58  40 NW9       29.98R
BOWLING GREEN  SUNNY     84  58  40 N8        29.97S
GLASGOW        SUNNY     83  58  41 N7        29.97S
$$

KYZ024-025-028>034-038-045-046-053-100000-
NORTH CENTRAL KENTUCKY

CITY           SKY/WX    TMP DP  RH WIND       PRES   REMARKS
LOUISVILLE/SDF MOSUNNY   86  57  37 W10       29.95S
LOUISVILLE/LOU MOSUNNY   85  55  35 NW6       29.95S
FORT KNOX      SUNNY     82  62  50 W6        29.96S
$$

KYZ035>037-039>044-047>052-055>060-089>105-100000-
NORTHEAST KENTUCKY

CITY           SKY/WX    TMP DP  RH WIND       PRES   REMARKS
LEXINGTON      SUNNY     84  58  40 NW6       29.97S
COVINGTON      MOSUNNY   79  58  48 W8        29.96R
FRANKFORT      SUNNY     83  55  38 W7        29.95F
$$

KYZ054-064>069-076>088-106>120-100000-
SOUTHEAST KENTUCKY

CITY           SKY/WX    TMP DP  RH WIND       PRES   REMARKS
JACKSON        PTSUNNY   82  59  45 NW6       29.99R
LONDON         MOSUNNY   84  60  44 NW7       29.99R
SOMERSET       SUNNY     82  54  36 NW7       29.99R
MIDDLESBORO    CLOUDY    78  69  74 S5        29.99R
MONTICELLO     PTCLDY    85  64  49 CALM      29.99R
$$



USA.gov is the U.S. government's official web portal to all federal, state and local government web resources and services.